Tracking 23758 objects as of 28-Oct-2021
HD Live streaming from Space Station
objects crossing your sky now

SL-6 R/B(2)

Track SL-6 R/B(2) now!


NORAD ID: 24764
Int'l Code: 1997-015D
Perigee: 1,960.0 km
Apogee: 37,963.9 km
Inclination: 65.4 °
Period: 708.8 minutes
Semi major axis: 26332 km
RCS: 5.7641 m2 (large)
Launch date: April 9, 1997
Source: Commonwealth of Independent States (former USSR) (CIS)
Launch site: PLESETSK MISSILE AND SPACE COMPLEX (PKMTR)

Note: This is a ROCKET BODY
aabbcc
Your satellite tracking list
Your tracking list is empty




NASA's NSSDC Master Catalog

Two Line Element Set (TLE):
1 24764U 97015D   21300.18311886 -.00000235  00000-0  00000-0 0  9998
2 24764  65.4140 219.6210 6836287 160.7065 249.5592  2.03167475182115
Source of the keplerian elements: AFSPC